{"data":{"norad_id":62593,"intl_designator":"2025-008G","name":"STARLINK-11413 [DTC]","alt_names":[],"object_type":"PAYLOAD","status":"ACTIVE","operator":null,"country":"US","launch_date":"2025-01-13","launch_site_code":"AFETR","launch_vehicle":null,"mission":null,"orbit_class":"UNKNOWN","rcs_meters":null,"size_class":null,"mass_kg":null,"dimensions":null,"purposes":["comms"],"wikipedia_slug":null,"has_3d_model":false,"image_url":null,"decayed_at":null,"tle_current":{"epoch":"2026-09-21T16:03:55.778112Z","epoch_age_seconds":70318,"freshness":"FRESH","line1":"1 62593U 25008G   26264.66939558  .00153938  00000+0  11786-2 0  9994","line2":"2 62593  43.0034  25.1422 0002859 270.4035  89.6505 15.70887918 98006","mean_motion":15.70887918,"eccentricity":0.0002859,"inclination_deg":43.0034,"raan_deg":25.1422,"arg_perigee_deg":270.4035,"mean_anomaly_deg":89.6505,"bstar":0.0011786,"rev_number":9800,"period_min":91.667902178111,"perigee_km":354.4327142871,"apogee_km":358.28349858896,"semimajor_km":6734.495106438,"source":"CELESTRAK","updated_at":"2026-09-22T09:00:49.631720Z"}}}